www.pogodaiklimat.ru

Погода и климат >> Архив погоды >> Индия >> Бихар >> Бхагалпур


ПОГОДА в Бхагалпуре

  • Прогноз погоды в Бхагалпуре
  • Монитор погоды в Бхагалпуре

АРХИВ ПОГОДЫ в Бхагалпуре

Время (UTC), дата Ветер
(напр.,м/с)
 
Видим.   Явления Облачность Т
(С)
Тd
(С)
f
(%)
Тe
(С)
Тes
(С)
Комфортность P
(гПа)
Po
(гПа)
Тmin
(С)
Tmax
(С)
R
(мм)
R24
(мм)
S
(см)
03 17.07 штиль 0 1000 м дымка {дождь} 8/5 540 м
[Sc Ac trans]
+29.6 +26.8 85 +46 +51 опасность
перегрева
1003.3 997.8 +25.6 10
06 17.07 СВ 1 2000 м мгла 8/5 540 м
[Sc Ac trans]
+34.8 +28.3 69 +56 +65 опасность
перегрева
1002.5 997.1
09 17.07 штиль 0 2000 м мгла 9/5 540 м
[Sc Ac trans]
+33.0 +26.9 70 +51 +55 опасность
перегрева
1001.7 996.2
12 17.07 штиль 0 1000 м дымка 9/5 540 м
[Cb calv Ac trans]
+31.0 +26.8 78 +48 +48 опасность
перегрева
1000.1 994.6 +36.0
15 17.07 штиль 0 1000 м дымка 6/4 540 м
[Sc Ac trans]
+30.0 +26.7 83 +47 +47 опасность
перегрева
1001.9 996.4
18 17.07 штиль 0 1000 м зарница 8/5 540 м
[Cb calv Ac trans]
+28.8 +26.0 85 +43 +43 опасность
перегрева
1002.9 997.4
21 17.07 штиль 0 1000 м зарница 9/6 540 м
[Cb calv Ac trans]
+27.6 +25.6 89 +41 +41 опасность
перегрева
1002.4 996.8
00 18.07 штиль 0 2000 м дымка 6/4 600 м
[Sc Ac trans]
+27.6 +26.2 92 +42 +42 опасность
перегрева
1002.3 996.7
03 18.07 штиль 0 1000 м дымка 5/3 600 м
[Sc Ac trans]
+30.2 +26.6 81 +47 +55 опасность
перегрева
1002.3 996.8 +26.8
06 18.07 штиль 0 2000 м мгла 8/5 540 м
[Sc diur, vesp Ac trans]
+35.0 +27.6 66 +55 +64 опасность
перегрева
1004.1 998.7
09 18.07 штиль 0 2000 м мгла 8/5 540 м
[Sc diur, vesp Ac trans]
+36.4 +27.7 61 +56 +62 опасность
перегрева
1000.9 995.5
12 18.07 штиль 0 2000 м мгла 9/8 540 м
[Sc diur, vesp Ac trans]
+35.6 +29.5 71 +61 +61 опасность
перегрева
998.7 993.3 +37.0
15 18.07 штиль 0 2000 м дымка 8/5 540 м
[Sc Ac trans]
+32.8 +28.5 78 +55 +55 опасность
перегрева
1000.9 995.4
18 18.07 штиль 0 1000 м дымка 8/5 540 м
[Sc Ac trans]
+31.2 +27.3 80 +50 +50 опасность
перегрева
1002.6 997.1
21 18.07 штиль 0 1000 м дымка 8/5 540 м
[Sc Ac trans]
+30.0 +26.9 84 +47 +47 опасность
перегрева
1002.1 996.6
00 19.07 штиль 0 1000 м дымка 5/3 540 м
[Sc Ac trans]
+29.4 +26.9 86 +46 +46 опасность
перегрева
1002.1 996.6
03 19.07 штиль 0 1000 м дымка 6/4 600 м
[Sc Ac trans]
+31.6 +28.1 82 +52 +60 опасность
перегрева
1004.0 998.5 +28.0
06 19.07 штиль 0 2000 м мгла 9/6 540 м
[Sc diur, vesp Ac trans]
+36.2 +29.2 67 +60 +66 опасность
перегрева
1002.9 997.5
09 19.07 штиль 0 2000 м мгла 6/5 540 м
[Sc diur, vesp Ac trans]
+37.4 +27.5 57 +56 +64 опасность
перегрева
1000.5 995.1
12 19.07 штиль 0 2000 м в посл. час гроза 9/6 540 м
[Cb calv Ac trans]
+32.0 +27.3 76 +50 +51 опасность
перегрева
1000.9 995.4 +37.9 1
15 19.07 штиль 0 1000 м дымка {гроза, дождь} 4/3 540 м
[Sc Ac trans]
+30.6 +27.6 84 +49 +49 опасность
перегрева
1002.1 996.6 1
18 19.07 штиль 0 1000 м дымка 6/4 600 м
[Sc Ac trans]
+29.8 +27.3 86 +47 +47 опасность
перегрева
1004.1 998.6 1
21 19.07 штиль 0 1000 м дымка 6/4 540 м
[Sc Ac trans]
+28.4 +26.4 89 +43 +43 опасность
перегрева
1003.6 998.0 1
00 20.07 штиль 0 1000 м дымка 6/4 600 м
[Sc Ac trans]
+28.2 +26.5 91 +44 +44 опасность
перегрева
1003.6 998.0 1
03 20.07 штиль 0 1000 м дымка 8/5 540 м
[Sc Ac trans]
+31.0 +27.4 81 +49 +54 опасность
перегрева
1005.5 1000.0 +27.6 1
06 20.07 штиль 0 2000 м мгла 5/4 540 м
[Sc Ac trans]
+34.8 +27.1 64 +53 +69 опасность
перегрева
1004.7 999.3
09 20.07 штиль 0 2000 м мгла 8/5 540 м
[Sc Ac trans]
+36.8 +25.4 52 +51 +57 опасность
перегрева
1002.3 996.9
12 20.07 2000 м мгла н/о +36.2 +27.5 61 +55 +56 опасность
перегрева
1000.7 995.3 +37.8
15 20.07 штиль 0 2000 м мгла 4/3 540 м
[Sc Ac trans]
+32.8 +26.7 70 +50 +50 опасность
перегрева
1002.2 996.7
18 20.07 штиль 0 2000 м дымка 5/4 540 м
[Sc Ac trans]
+31.4 +26.7 76 +48 +48 опасность
перегрева
1002.7 997.2
21 20.07 штиль 0 1000 м дымка 5/4 540 м
[Sc Ac trans]
+30.2 +26.6 81 +47 +47 опасность
перегрева
1001.6 996.1
00 21.07 штиль 0 1000 м дымка 5/4 540 м
[Sc Ac trans]
+29.4 +26.6 85 +45 +46 опасность
перегрева
1002.7 997.2
03 21.07 Ю 2 2000 м мгла 4/1 540 м
[Sc Ac trans]
+31.0 +26.8 78 +48 +57 опасность
перегрева
1004.3 998.8 +28.1
06 21.07 штиль 0 2000 м мгла 8/5 600 м
[Sc diur, vesp Ac trans]
+36.6 +27.0 58 +54 +64 опасность
перегрева
1003.9 998.5
09 21.07 штиль 0 2000 м мгла 8/5 600 м
[Sc diur, vesp Ac trans]
+37.6 +27.2 56 +56 +62 опасность
перегрева
1001.4 996.0
12 21.07 штиль 0 2000 м мгла 8/5 540 м
[Sc diur, vesp Ac trans]
+37.0 +27.5 58 +56 +56 опасность
перегрева
1000.3 994.9 +38.0
15 21.07 штиль 0 2000 м мгла 6/4 600 м
[Sc Ac trans]
+33.6 +28.5 75 +56 +56 опасность
перегрева
1001.9 996.4
18 21.07 штиль 0 2000 м мгла 6/4 600 м
[Sc Ac trans]
+31.8 +26.8 75 +49 +49 опасность
перегрева
1001.9 996.4
21 21.07 штиль 0 2000 м мгла 6/4 600 м
[Sc Ac trans]
+31.0 +26.3 76 +47 +47 опасность
перегрева
1001.3 995.8
00 22.07 штиль 0 1000 м дымка 8/4 600 м
[Sc Ac trans]
+30.4 +26.5 80 +47 +47 опасность
перегрева
1001.1 995.6
03 22.07 штиль 0 1000 м дымка 9/6 540 м
[Sc Ac As]
+32.0 +27.9 79 +52 +55 опасность
перегрева
1002.1 996.6 +29.0
06 22.07 ЮЗ 1 2000 м мгла 9/6 540 м
[Cb calv Ac trans]
+36.6 +27.6 60 +56 +62 опасность
перегрева
1002.5 997.1
09 22.07 штиль 0 2000 м в посл. час гроза {дождь} 10/6 450 м
[Cb calv As op]
+31.6 +26.6 75 +49 +50 опасность
перегрева
1001.5 996.0 2
12 22.07 Ю 1 2000 м дымка {гроза, дождь} 10/8 450 м
[Cb cap As op]
+29.4 +26.0 82 +44 +44 опасность
перегрева
1000.7 995.2 +38.0 2
15 22.07 штиль 0 1000 м дымка 10/8 540 м
[Cb calv As op]
+28.6 +26.1 86 +43 +43 опасность
перегрева
1001.9 996.4 2
18 22.07 штиль 0 1000 м дымка 10/8 540 м
[Cb calv As op]
+28.4 +26.2 88 +43 +43 опасность
перегрева
1001.7 996.2 2
21 22.07 штиль 0 1000 м дымка 10/8 540 м
[Cb calv As op]
+28.0 +26.0 89 +42 +42 опасность
перегрева
1000.9 995.3 2
00 23.07 штиль 0 1000 м дымка 6/4 540 м
[Sc Ac trans]
+28.0 +26.3 91 +43 +43 опасность
перегрева
1001.4 995.8 2
03 23.07 штиль 0 1000 м дымка 8/5 540 м
[Sc Ac trans]
+30.6 +27.3 83 +49 +54 опасность
перегрева
1002.2 996.7 +26.6 2
06 23.07 штиль 0 2000 м мгла 9/6 540 м
[Sc Ac trans]
+36.4 +28.6 64 +58 +65 опасность
перегрева
1001.0 995.6
09 23.07 штиль 0 2000 м мгла 10/8 540 м
[Cb calv As trans]
+38.4 +29.6 61 +63 +64 опасность
перегрева
997.9 992.6
12 23.07 штиль 0 1000 м дымка {гроза, дождь} 10/8 450 м
[Cb calv As op]
+28.6 +27.2 92 +45 +45 опасность
перегрева
1000.2 994.7 +38.5 22
15 23.07 штиль 0 1000 м гроза, ливневой дождь 10/8 450 м
[Cb calv As op]
+27.6 +26.8 95 +43 +43 опасность
перегрева
1001.7 996.1 24
18 23.07 штиль 0 1000 м гроза, ливневой дождь 10/8 450 м
[Cb cap As op]
+27.2 +26.4 95 +41 +41 опасность
перегрева
1002.6 997.0 25
21 23.07 штиль 0 1000 м зарница {гроза, метель} 10/8 450 м
[Cb cap As op]
+26.8 +26.2 97 +41 +41 опасность
перегрева
1002.1 996.5 26

 

Местоположение метеостанции Бхагалпур (Бихар, Индия): широта 25.23 долгота 86.95 высота над уровнем моря 49 м.

В архиве по умолчанию представлена погода в Бхагалпуре за последнюю неделю. Архивные данные за месяц целиком и за предыдущие месяцы, начиная с января 2011 года, Вы можете получить, выбрав интересующий диапазон дат из раскрывающегося списка и нажав кнопку "Ввод!".


*Определитесь, кто Вы:
робот инопланетянин человек

Внимание! Время в таблицах - всемирное. Для получения местного времени необходимо прибавить поправку, которая равна 5.5 ч.

Смотрите также архив погоды в соседних городах и на ближайших метеорологических станциях:

Погода в Пурнеа (Бихар, Индия) (53 км)
Погода в Малда (Западная Бенгалия, Индия) (121 км)
Погода в Биратнагаре (Непал) (142 км)
Погода в Бадалхачги (Бангладеш) (156 км)
Погода в Асансоле (Западная Бенгалия, Индия) (172 км)
Погода в Динаджпуре (Бангладеш) (180 км)
Погода в Бахарампуре (Западная Бенгалия, Индия) (181 км)
Погода в Балургхате (Западная Бенгалия, Индия) (184 км)
Погода в Димле (Бангладеш) (187 км)
Погода в Патне (Бихар, Индия) (190 км)

Пояснения к столбцам:

Ветер - указаны скорость ветра в м/с - средняя за 10 мин, порывы в срок и между сроками (в фигурных скобках) и направление, откуда дует ветер: С - северный, СВ - северо-восточный, В - восточный, ЮВ - юго-восточный, Ю - южный, ЮЗ - юго-западный, З - западный, СЗ - северо-западный.
Видимость - горизонтальная дальность видимости в метрах или километрах. При видимости от 1 до 10 км при отсутствии осадков обычно наблюдается дымка, при ухудшении видимости до 1 км и менее - туман. В сухую погоду видимость может ухудшаться дымом, пылью или мглою.
Явления - указаны атмосферные явления, наблюдавшиеся в срок или в последний час перед сроком; фигурными скобками обозначены явления, наблюдавшиеся между сроками (за 1-3 часа до срока); квадратными скобками обозначены град или гололедные отложения с указанием их диаметра в мм.
Облачность - указаны через наклонную черту общая и нижняя облачность в баллах и высота нижней границы облаков в метрах; квадратными скобками обозначены формы облаков: Ci - перистые, Cs - перисто-слоистые, Cc - перисто-кучевые, Ac - высококучевые, As - высокослоистые, Sc - слоисто-кучевые, Ns - слоисто-дождевые, Cu - кучевые, Cb - кучево-дождевые. Подробнее классификацию облаков см. в Атласе облаков (PDF).
T - Температура воздуха - температура, измеренная на высоте 2 м над землей.
Td - Температура точки росы - температура, при понижении до которой содержащийся в воздухе водяной пар достигнет насыщения.
f - Относительная влажность воздуха - влажноcть воздуха, измеренная на высоте 2 м над землей.
Te - Эффективная температура - температура, которую ощущает одетый по сезону человек в тени. Характеристика душности погоды. При расчете учитывается влияние влажности воздуха и скорости ветра на теплоощущения человека.
Tes - Эффективная температура на солнце - температура, которую ощущает человек, с поправкой на солнечный нагрев. Характеристика знойности погоды. Зависит от высоты солнца над горизонтом, облачности и скорости ветра. Ночью, в пасмурную погоду, а также при ветре 12 м/с и более поправка равна нулю.
P - Атмосферное давление - приведенное к уровню моря атмосферное давление.
Po - Атмосферное давление - измеренное на уровне метеостанции атмосферное давление.
Tmin - Минимальная температура - минимум температуры воздуха на высоте 2 м над землей.
Tmax - Максимальная температура - максимум температуры воздуха на высоте 2 м над землей.
R - Количество осадков - Количество выпавших осадков за период времени, мм. При наведении курсора мыши на число - период времени, за который выпало указанное количество осадков.
R24 - Количество осадков - Количество выпавших осадков за 24 часа, мм.
S - Снежный покров - Высота снежного покрова, см. При наведении курсора мыши на число - состояние снежного покрова и степень покрытия местности в баллах.